Year,Month,Day,Hour,Minute,Value (Times are PST for temperature in C)
2017,08,27,00,00,15.50
2017,08,27,00,01,15.50
2017,08,27,00,02,15.50
2017,08,27,00,03,15.40
2017,08,27,00,04,15.40
2017,08,27,00,05,15.40
2017,08,27,00,06,15.40
2017,08,27,00,07,15.40
2017,08,27,00,08,15.40
2017,08,27,00,09,15.40
2017,08,27,00,10,15.40
2017,08,27,00,11,15.40
2017,08,27,00,12,15.40
2017,08,27,00,13,15.40
2017,08,27,00,14,15.40
2017,08,27,00,15,15.40
2017,08,27,00,16,15.40
2017,08,27,00,17,15.40
2017,08,27,00,18,15.40
2017,08,27,00,19,15.40
2017,08,27,00,20,15.40
2017,08,27,00,21,15.40
2017,08,27,00,22,15.40
2017,08,27,00,23,15.40
2017,08,27,00,24,15.30
2017,08,27,00,25,15.30
2017,08,27,00,26,15.30
2017,08,27,00,27,15.30
2017,08,27,00,28,15.30
2017,08,27,00,29,15.30
2017,08,27,00,30,15.30
2017,08,27,00,31,15.30
2017,08,27,00,32,15.30
2017,08,27,00,33,15.30
2017,08,27,00,34,15.30
2017,08,27,00,35,15.30
2017,08,27,00,36,15.30
2017,08,27,00,37,15.30
2017,08,27,00,38,15.30
2017,08,27,00,39,15.40
2017,08,27,00,40,15.40
2017,08,27,00,41,15.40
2017,08,27,00,42,15.40
2017,08,27,00,43,15.40
2017,08,27,00,44,15.40
2017,08,27,00,45,15.40
2017,08,27,00,46,15.40
2017,08,27,00,47,15.40
2017,08,27,00,48,15.40
2017,08,27,00,49,15.40
2017,08,27,00,50,15.40
2017,08,27,00,51,15.40
2017,08,27,00,52,15.40
2017,08,27,00,53,15.40
2017,08,27,00,54,15.40
2017,08,27,00,55,15.40
2017,08,27,00,56,15.40
2017,08,27,00,57,15.40
2017,08,27,00,58,15.40
2017,08,27,00,59,15.40
2017,08,27,01,00,15.40
2017,08,27,01,01,15.40
2017,08,27,01,02,15.40
2017,08,27,01,03,15.40
2017,08,27,01,04,15.40
2017,08,27,01,05,15.40
2017,08,27,01,06,15.40
2017,08,27,01,07,15.40
2017,08,27,01,08,15.40
2017,08,27,01,09,15.40
2017,08,27,01,10,15.40
2017,08,27,01,11,15.40
2017,08,27,01,12,15.40
2017,08,27,01,13,15.40
2017,08,27,01,14,15.40
2017,08,27,01,15,15.40
2017,08,27,01,16,15.40
2017,08,27,01,17,15.40
2017,08,27,01,18,15.40
2017,08,27,01,19,15.40
2017,08,27,01,20,15.40
2017,08,27,01,21,15.40
2017,08,27,01,22,15.40
2017,08,27,01,23,15.40
2017,08,27,01,24,15.40
2017,08,27,01,25,15.40
2017,08,27,01,26,15.40
2017,08,27,01,27,15.40
2017,08,27,01,28,15.40
2017,08,27,01,29,15.40
2017,08,27,01,30,15.40
2017,08,27,01,31,15.40
2017,08,27,01,32,15.40
2017,08,27,01,33,15.40
2017,08,27,01,34,15.40
2017,08,27,01,35,15.40
2017,08,27,01,36,15.40
2017,08,27,01,37,15.40
2017,08,27,01,38,15.40
2017,08,27,01,39,15.40
2017,08,27,01,40,15.40
2017,08,27,01,41,15.40
2017,08,27,01,42,15.40
2017,08,27,01,43,15.40
2017,08,27,01,44,15.40
2017,08,27,01,45,15.40
2017,08,27,01,46,15.40
2017,08,27,01,47,15.40
2017,08,27,01,48,15.40
2017,08,27,01,49,15.40
2017,08,27,01,50,15.40
2017,08,27,01,51,15.40
2017,08,27,01,52,15.40
2017,08,27,01,53,15.40
2017,08,27,01,54,15.40
2017,08,27,01,55,15.40
2017,08,27,01,56,15.40
2017,08,27,01,57,15.40
2017,08,27,01,58,15.30
2017,08,27,01,59,15.30
2017,08,27,02,00,15.30
2017,08,27,02,01,15.30
2017,08,27,02,02,15.30
2017,08,27,02,03,15.30
2017,08,27,02,04,15.30
2017,08,27,02,05,15.30
2017,08,27,02,06,15.30
2017,08,27,02,07,15.30
2017,08,27,02,08,15.30
2017,08,27,02,09,15.30
2017,08,27,02,10,15.30
2017,08,27,02,11,15.30
2017,08,27,02,12,15.30
2017,08,27,02,13,15.30
2017,08,27,02,14,15.30
2017,08,27,02,15,15.30
2017,08,27,02,16,15.30
2017,08,27,02,17,15.30
2017,08,27,02,18,15.30
2017,08,27,02,19,15.30
2017,08,27,02,20,15.30
2017,08,27,02,21,15.20
2017,08,27,02,22,15.20
2017,08,27,02,23,15.20
2017,08,27,02,24,15.20
2017,08,27,02,25,15.20
2017,08,27,02,26,15.20
2017,08,27,02,27,15.20
2017,08,27,02,28,15.20
2017,08,27,02,29,15.20
2017,08,27,02,30,15.30
2017,08,27,02,31,15.30
2017,08,27,02,32,15.30
2017,08,27,02,33,15.30
2017,08,27,02,34,15.30
2017,08,27,02,35,15.30
2017,08,27,02,36,15.30
2017,08,27,02,37,15.30
2017,08,27,02,38,15.30
2017,08,27,02,39,15.30
2017,08,27,02,40,15.30
2017,08,27,02,41,15.30
2017,08,27,02,42,15.30
2017,08,27,02,43,15.30
2017,08,27,02,44,15.30
2017,08,27,02,45,15.30
2017,08,27,02,46,15.30
2017,08,27,02,47,15.20
2017,08,27,02,48,15.20
2017,08,27,02,49,15.20
2017,08,27,02,50,15.20
2017,08,27,02,51,15.20
2017,08,27,02,52,15.20
2017,08,27,02,53,15.20
2017,08,27,02,54,15.20
2017,08,27,02,55,15.20
2017,08,27,02,56,15.20
2017,08,27,02,57,15.20
2017,08,27,02,58,15.10
2017,08,27,02,59,15.10
2017,08,27,03,00,15.10
2017,08,27,03,01,15.10
2017,08,27,03,02,15.20
2017,08,27,03,03,15.20
2017,08,27,03,04,15.20
2017,08,27,03,05,15.20
2017,08,27,03,06,15.20
2017,08,27,03,07,15.20
2017,08,27,03,08,15.20
2017,08,27,03,09,15.20
2017,08,27,03,10,15.10
2017,08,27,03,11,15.10
2017,08,27,03,12,15.10
2017,08,27,03,13,15.10
2017,08,27,03,14,15.10
2017,08,27,03,15,15.10
2017,08,27,03,16,15.10
2017,08,27,03,17,15.10
2017,08,27,03,18,15.10
2017,08,27,03,19,15.10
2017,08,27,03,20,15.10
2017,08,27,03,21,15.10
2017,08,27,03,22,15.20
2017,08,27,03,23,15.10
2017,08,27,03,24,15.10
2017,08,27,03,25,15.10
2017,08,27,03,26,15.10
2017,08,27,03,27,15.10
2017,08,27,03,28,15.10
2017,08,27,03,29,15.10
2017,08,27,03,30,15.10
2017,08,27,03,31,15.10
2017,08,27,03,32,15.10
2017,08,27,03,33,15.10
2017,08,27,03,34,15.10
2017,08,27,03,35,15.10
2017,08,27,03,36,15.10
2017,08,27,03,37,15.10
2017,08,27,03,38,15.10
2017,08,27,03,39,15.10
2017,08,27,03,40,15.00
2017,08,27,03,41,15.00
2017,08,27,03,42,15.00
2017,08,27,03,43,15.00
2017,08,27,03,44,15.00
2017,08,27,03,45,15.00
2017,08,27,03,46,15.10
2017,08,27,03,47,15.10
2017,08,27,03,48,15.10
2017,08,27,03,49,15.10
2017,08,27,03,50,15.10
2017,08,27,03,51,15.10
2017,08,27,03,52,15.10
2017,08,27,03,53,15.10
2017,08,27,03,54,15.00
2017,08,27,03,55,15.00
2017,08,27,03,56,15.00
2017,08,27,03,57,15.00
2017,08,27,03,58,15.00
2017,08,27,03,59,15.00
2017,08,27,04,00,15.00
2017,08,27,04,01,15.00
2017,08,27,04,02,14.90
2017,08,27,04,03,15.00
2017,08,27,04,04,15.00
2017,08,27,04,05,15.00
2017,08,27,04,06,15.00
2017,08,27,04,07,15.00
2017,08,27,04,08,15.00
2017,08,27,04,09,15.00
2017,08,27,04,10,15.00
2017,08,27,04,11,15.00
2017,08,27,04,12,14.90
2017,08,27,04,13,15.00
2017,08,27,04,14,15.00
2017,08,27,04,15,15.00
2017,08,27,04,16,15.00
2017,08,27,04,17,15.00
2017,08,27,04,18,15.00
2017,08,27,04,19,15.00
2017,08,27,04,20,15.00
2017,08,27,04,21,15.00
2017,08,27,04,22,15.00
2017,08,27,04,23,15.00
2017,08,27,04,24,15.00
2017,08,27,04,25,14.90
2017,08,27,04,26,14.90
2017,08,27,04,27,14.90
2017,08,27,04,28,14.90
2017,08,27,04,29,14.90
2017,08,27,04,30,14.90
2017,08,27,04,31,14.90
2017,08,27,04,32,14.90
2017,08,27,04,33,14.90
2017,08,27,04,34,14.90
2017,08,27,04,35,14.90
2017,08,27,04,36,14.90
2017,08,27,04,37,14.90
2017,08,27,04,38,14.90
2017,08,27,04,39,14.90
2017,08,27,04,40,14.90
2017,08,27,04,41,14.90
2017,08,27,04,42,14.80
2017,08,27,04,43,14.80
2017,08,27,04,44,14.80
2017,08,27,04,45,14.80
2017,08,27,04,46,14.80
2017,08,27,04,47,14.80
2017,08,27,04,48,14.80
2017,08,27,04,49,14.80
2017,08,27,04,50,14.80
2017,08,27,04,51,14.70
2017,08,27,04,52,14.70
2017,08,27,04,53,14.70
2017,08,27,04,54,14.70
2017,08,27,04,55,14.70
2017,08,27,04,56,14.70
2017,08,27,04,57,14.80
2017,08,27,04,58,14.70
2017,08,27,04,59,14.80
2017,08,27,05,00,14.80
2017,08,27,05,01,14.70
2017,08,27,05,02,14.70
2017,08,27,05,03,14.70
2017,08,27,05,04,14.70
2017,08,27,05,05,14.70
2017,08,27,05,06,14.60
2017,08,27,05,07,14.60
2017,08,27,05,08,14.60
2017,08,27,05,09,14.60
2017,08,27,05,10,14.60
2017,08,27,05,11,14.60
2017,08,27,05,12,14.60
2017,08,27,05,13,14.60
2017,08,27,05,14,14.60
2017,08,27,05,15,14.60
2017,08,27,05,16,14.60
2017,08,27,05,17,14.60
2017,08,27,05,18,14.60
2017,08,27,05,19,14.60
2017,08,27,05,20,14.60
2017,08,27,05,21,14.60
2017,08,27,05,22,14.60
2017,08,27,05,23,14.60
2017,08,27,05,24,14.50
2017,08,27,05,25,14.50
2017,08,27,05,26,14.50
2017,08,27,05,27,14.50
2017,08,27,05,28,14.50
2017,08,27,05,29,14.50
2017,08,27,05,30,14.50
2017,08,27,05,31,14.50
2017,08,27,05,32,14.50
2017,08,27,05,33,14.50
2017,08,27,05,34,14.50
2017,08,27,05,35,14.50
2017,08,27,05,36,14.50
2017,08,27,05,37,14.40
2017,08,27,05,38,14.40
2017,08,27,05,39,14.40
2017,08,27,05,40,14.40
2017,08,27,05,41,14.40
2017,08,27,05,42,14.40
2017,08,27,05,43,14.40
2017,08,27,05,44,14.40
2017,08,27,05,45,14.40
2017,08,27,05,46,14.40
2017,08,27,05,47,14.40
2017,08,27,05,48,14.40
2017,08,27,05,49,14.40
2017,08,27,05,50,14.40
2017,08,27,05,51,14.40
2017,08,27,05,52,14.40
2017,08,27,05,53,14.40
2017,08,27,05,54,14.40
2017,08,27,05,55,14.40
2017,08,27,05,56,14.40
2017,08,27,05,57,14.40
2017,08,27,05,58,14.40
2017,08,27,05,59,14.40
2017,08,27,06,00,14.40
2017,08,27,06,01,14.40
2017,08,27,06,02,14.40
2017,08,27,06,03,14.30
2017,08,27,06,04,14.30
2017,08,27,06,05,14.30
2017,08,27,06,06,14.30
2017,08,27,06,07,14.30
2017,08,27,06,08,14.30
2017,08,27,06,09,14.20
2017,08,27,06,10,14.20
2017,08,27,06,11,14.20
2017,08,27,06,12,14.20
2017,08,27,06,13,14.30
2017,08,27,06,14,14.30
2017,08,27,06,15,14.30
2017,08,27,06,16,14.30
2017,08,27,06,17,14.30
2017,08,27,06,18,14.30
2017,08,27,06,19,14.30
2017,08,27,06,20,14.20
2017,08,27,06,21,14.20
2017,08,27,06,22,14.20
2017,08,27,06,23,14.20
2017,08,27,06,24,14.20
2017,08,27,06,25,14.20
2017,08,27,06,26,14.20
2017,08,27,06,27,14.20
2017,08,27,06,28,14.20
2017,08,27,06,29,14.20
2017,08,27,06,30,14.20
2017,08,27,06,31,14.20
2017,08,27,06,32,14.20
2017,08,27,06,33,14.20
2017,08,27,06,34,14.20
2017,08,27,06,35,14.20
2017,08,27,06,36,14.20
2017,08,27,06,37,14.20
2017,08,27,06,38,14.20
2017,08,27,06,39,14.20
2017,08,27,06,40,14.10
2017,08,27,06,41,14.10
2017,08,27,06,42,14.10
2017,08,27,06,43,14.10
2017,08,27,06,44,14.10
2017,08,27,06,45,14.10
2017,08,27,06,46,14.10
2017,08,27,06,47,14.10
2017,08,27,06,48,14.10
2017,08,27,06,49,14.10
2017,08,27,06,50,14.10
2017,08,27,06,51,14.10
2017,08,27,06,52,14.10
2017,08,27,06,53,14.10
2017,08,27,06,54,14.10
2017,08,27,06,55,14.10
2017,08,27,06,56,14.20
2017,08,27,06,57,14.20
2017,08,27,06,58,14.20
2017,08,27,06,59,14.20
2017,08,27,07,00,14.20
2017,08,27,07,01,14.20
2017,08,27,07,02,14.20
2017,08,27,07,03,14.20
2017,08,27,07,04,14.20
2017,08,27,07,05,14.20
2017,08,27,07,06,14.20
2017,08,27,07,07,14.30
2017,08,27,07,08,14.30
2017,08,27,07,09,14.30
2017,08,27,07,10,14.30
2017,08,27,07,11,14.40
2017,08,27,07,12,14.40
2017,08,27,07,13,14.40
2017,08,27,07,14,14.50
2017,08,27,07,15,14.50
2017,08,27,07,16,14.50
2017,08,27,07,17,14.50
2017,08,27,07,18,14.50
2017,08,27,07,19,14.60
2017,08,27,07,20,14.60
2017,08,27,07,21,14.60
2017,08,27,07,22,14.60
2017,08,27,07,23,14.60
2017,08,27,07,24,14.60
2017,08,27,07,25,14.60
2017,08,27,07,26,14.60
2017,08,27,07,27,14.70
2017,08,27,07,28,14.70
2017,08,27,07,29,14.70
2017,08,27,07,30,14.70
2017,08,27,07,31,14.70
2017,08,27,07,32,14.70
2017,08,27,07,33,14.70
2017,08,27,07,34,14.70
2017,08,27,07,35,14.80
2017,08,27,07,36,14.80
2017,08,27,07,37,14.80
2017,08,27,07,38,14.80
2017,08,27,07,39,14.80
2017,08,27,07,40,14.80
2017,08,27,07,41,14.90
2017,08,27,07,42,14.90
2017,08,27,07,43,14.90
2017,08,27,07,44,14.90
2017,08,27,07,45,14.90
2017,08,27,07,46,15.00
2017,08,27,07,47,15.00
2017,08,27,07,48,15.00
2017,08,27,07,49,15.00
2017,08,27,07,50,15.10
2017,08,27,07,51,15.10
2017,08,27,07,52,15.20
2017,08,27,07,53,15.20
2017,08,27,07,54,15.30
2017,08,27,07,55,15.30
2017,08,27,07,56,15.30
2017,08,27,07,57,15.40
2017,08,27,07,58,15.40
2017,08,27,07,59,15.40
2017,08,27,08,00,15.50
2017,08,27,08,01,15.50
2017,08,27,08,02,15.60
2017,08,27,08,03,15.60
2017,08,27,08,04,15.60
2017,08,27,08,05,15.70
2017,08,27,08,06,15.70
2017,08,27,08,07,15.70
2017,08,27,08,08,15.80
2017,08,27,08,09,15.80
2017,08,27,08,10,15.90
2017,08,27,08,11,15.90
2017,08,27,08,12,16.00
2017,08,27,08,13,16.00
2017,08,27,08,14,16.10
2017,08,27,08,15,16.10
2017,08,27,08,16,16.20
2017,08,27,08,17,16.20
2017,08,27,08,18,16.20
2017,08,27,08,19,16.30
2017,08,27,08,20,16.30
2017,08,27,08,21,16.40
2017,08,27,08,22,16.40
2017,08,27,08,23,16.50
2017,08,27,08,24,16.50
2017,08,27,08,25,16.60
2017,08,27,08,26,16.60
2017,08,27,08,27,16.70
2017,08,27,08,28,16.80
2017,08,27,08,29,16.80
2017,08,27,08,30,16.90
2017,08,27,08,31,16.90
2017,08,27,08,32,17.00
2017,08,27,08,33,17.00
2017,08,27,08,34,17.10
2017,08,27,08,35,17.20
2017,08,27,08,36,17.30
2017,08,27,08,37,17.30
2017,08,27,08,38,17.40
2017,08,27,08,39,17.50
2017,08,27,08,40,17.60
2017,08,27,08,41,17.70
2017,08,27,08,42,17.80
2017,08,27,08,43,18.00
2017,08,27,08,44,18.10
2017,08,27,08,45,18.20
2017,08,27,08,46,18.30
2017,08,27,08,47,18.50
2017,08,27,08,48,18.50
2017,08,27,08,49,18.60
2017,08,27,08,50,18.70
2017,08,27,08,51,18.70
2017,08,27,08,52,18.80
2017,08,27,08,53,18.80
2017,08,27,08,54,18.90
2017,08,27,08,55,19.00
2017,08,27,08,56,19.10
2017,08,27,08,57,19.10
2017,08,27,08,58,19.20
2017,08,27,08,59,19.30
2017,08,27,09,00,19.40
2017,08,27,09,01,19.40
2017,08,27,09,02,19.50
2017,08,27,09,03,19.60
2017,08,27,09,04,19.60
2017,08,27,09,05,19.70
2017,08,27,09,06,19.80
2017,08,27,09,07,19.90
2017,08,27,09,08,20.00
2017,08,27,09,09,20.10
2017,08,27,09,10,20.10
2017,08,27,09,11,20.20
2017,08,27,09,12,20.30
2017,08,27,09,13,20.40
2017,08,27,09,14,20.50
2017,08,27,09,15,20.50
2017,08,27,09,16,20.60
2017,08,27,09,17,20.70
2017,08,27,09,18,20.80
2017,08,27,09,19,20.80
2017,08,27,09,20,20.90
2017,08,27,09,21,21.00
2017,08,27,09,22,21.00
2017,08,27,09,23,21.10
2017,08,27,09,24,21.10
2017,08,27,09,25,21.20
2017,08,27,09,26,21.20
2017,08,27,09,27,21.30
2017,08,27,09,28,21.30
2017,08,27,09,29,21.40
2017,08,27,09,30,21.40
2017,08,27,09,31,21.40
2017,08,27,09,32,21.50
2017,08,27,09,33,21.60
2017,08,27,09,34,21.60
2017,08,27,09,35,21.70
2017,08,27,09,36,21.70
2017,08,27,09,37,21.80
2017,08,27,09,38,21.80
2017,08,27,09,39,21.90
2017,08,27,09,40,21.90
2017,08,27,09,41,22.00
2017,08,27,09,42,22.00
2017,08,27,09,43,22.00
2017,08,27,09,44,22.10
2017,08,27,09,45,22.10
2017,08,27,09,46,22.10
2017,08,27,09,47,22.20
2017,08,27,09,48,22.20
2017,08,27,09,49,22.20
2017,08,27,09,50,22.20
2017,08,27,09,51,22.20
2017,08,27,09,52,22.20
2017,08,27,09,53,22.20
2017,08,27,09,54,22.20
2017,08,27,09,55,22.20
2017,08,27,09,56,22.20
2017,08,27,09,57,22.20
2017,08,27,09,58,22.20
2017,08,27,09,59,22.20
2017,08,27,10,00,22.20
2017,08,27,10,01,22.20
2017,08,27,10,02,22.20
2017,08,27,10,03,22.20
2017,08,27,10,04,22.20
2017,08,27,10,05,22.30
2017,08,27,10,06,22.30
2017,08,27,10,07,22.30
2017,08,27,10,08,22.30
2017,08,27,10,09,22.30
2017,08,27,10,10,22.30
2017,08,27,10,11,22.30
2017,08,27,10,12,22.30
2017,08,27,10,13,22.30
2017,08,27,10,14,22.30
2017,08,27,10,15,22.30
2017,08,27,10,16,22.30
2017,08,27,10,17,22.30
2017,08,27,10,18,22.30
2017,08,27,10,19,22.30
2017,08,27,10,20,22.30
2017,08,27,10,21,22.40
2017,08,27,10,22,22.40
2017,08,27,10,23,22.30
2017,08,27,10,24,22.30
2017,08,27,10,25,22.30
2017,08,27,10,26,22.30
2017,08,27,10,27,22.40
2017,08,27,10,28,22.40
2017,08,27,10,29,22.40
2017,08,27,10,30,22.40
2017,08,27,10,31,22.40
2017,08,27,10,32,22.40
2017,08,27,10,33,22.40
2017,08,27,10,34,22.40
2017,08,27,10,35,22.50
2017,08,27,10,36,22.50
2017,08,27,10,37,22.50
2017,08,27,10,38,22.50
2017,08,27,10,39,22.50
2017,08,27,10,40,22.50
2017,08,27,10,41,22.50
2017,08,27,10,42,22.50
2017,08,27,10,43,22.50
2017,08,27,10,44,22.50
2017,08,27,10,45,22.50
2017,08,27,10,46,22.50
2017,08,27,10,47,22.60
2017,08,27,10,48,22.60
2017,08,27,10,49,22.60
2017,08,27,10,50,22.70
2017,08,27,10,51,22.70
2017,08,27,10,52,22.80
2017,08,27,10,53,22.80
2017,08,27,10,54,22.80
2017,08,27,10,55,22.80
2017,08,27,10,56,22.80
2017,08,27,10,57,22.80
2017,08,27,10,58,22.80
2017,08,27,10,59,22.80
2017,08,27,11,00,22.90
2017,08,27,11,01,22.90
2017,08,27,11,02,22.90
2017,08,27,11,03,22.90
2017,08,27,11,04,23.00
2017,08,27,11,05,23.00
2017,08,27,11,06,23.00
2017,08,27,11,07,23.00
2017,08,27,11,08,23.00
2017,08,27,11,09,23.10
2017,08,27,11,10,23.10
2017,08,27,11,11,23.00
2017,08,27,11,12,23.10
2017,08,27,11,13,23.10
2017,08,27,11,14,23.10
2017,08,27,11,15,23.10
2017,08,27,11,16,23.10
2017,08,27,11,17,23.10
2017,08,27,11,18,23.20
2017,08,27,11,19,23.20
2017,08,27,11,20,23.20
2017,08,27,11,21,23.20
2017,08,27,11,22,23.20
2017,08,27,11,23,23.20
2017,08,27,11,24,23.20
2017,08,27,11,25,23.20
2017,08,27,11,26,23.20
2017,08,27,11,27,23.30
2017,08,27,11,28,23.30
2017,08,27,11,29,23.30
2017,08,27,11,30,23.30
2017,08,27,11,31,23.40
2017,08,27,11,32,23.40
2017,08,27,11,33,23.40
2017,08,27,11,34,23.40
2017,08,27,11,35,23.50
2017,08,27,11,36,23.40
2017,08,27,11,37,23.50
2017,08,27,11,38,23.50
2017,08,27,11,39,23.50
2017,08,27,11,40,23.60
2017,08,27,11,41,23.60
2017,08,27,11,42,23.60
2017,08,27,11,43,23.60
2017,08,27,11,44,23.60
2017,08,27,11,45,23.60
2017,08,27,11,46,23.70
2017,08,27,11,47,23.70
2017,08,27,11,48,23.70
2017,08,27,11,49,23.70
2017,08,27,11,50,23.70
2017,08,27,11,51,23.70
2017,08,27,11,52,23.80
2017,08,27,11,53,23.80
2017,08,27,11,54,23.80
2017,08,27,11,55,23.80
2017,08,27,11,56,23.90
2017,08,27,11,57,23.90
2017,08,27,11,58,24.00
2017,08,27,11,59,24.10
2017,08,27,12,00,24.10
2017,08,27,12,01,24.20
2017,08,27,12,02,24.30
2017,08,27,12,03,24.30
2017,08,27,12,04,24.30
2017,08,27,12,05,24.30
2017,08,27,12,06,24.30
2017,08,27,12,07,24.30
2017,08,27,12,08,24.40
2017,08,27,12,09,24.40
2017,08,27,12,10,24.40
2017,08,27,12,11,24.40
2017,08,27,12,12,24.40
2017,08,27,12,13,24.40
2017,08,27,12,14,24.40
2017,08,27,12,15,24.40
2017,08,27,12,16,24.40
2017,08,27,12,17,24.50
2017,08,27,12,18,24.50
2017,08,27,12,19,24.60
2017,08,27,12,20,24.60
2017,08,27,12,21,24.60
2017,08,27,12,22,24.60
2017,08,27,12,23,24.70
2017,08,27,12,24,24.70
2017,08,27,12,25,24.70
2017,08,27,12,26,24.70
2017,08,27,12,27,24.70
2017,08,27,12,28,24.80
2017,08,27,12,29,24.80
2017,08,27,12,30,24.80
2017,08,27,12,31,24.80
2017,08,27,12,32,24.80
2017,08,27,12,33,24.90
2017,08,27,12,34,24.90
2017,08,27,12,35,25.00
2017,08,27,12,36,25.00
2017,08,27,12,37,25.00
2017,08,27,12,38,24.90
2017,08,27,12,39,24.90
2017,08,27,12,40,24.90
2017,08,27,12,41,24.90
2017,08,27,12,42,24.90
2017,08,27,12,43,24.90
2017,08,27,12,44,25.00
2017,08,27,12,45,25.00
2017,08,27,12,46,25.00
2017,08,27,12,47,25.00
2017,08,27,12,48,25.10
2017,08,27,12,49,25.10
2017,08,27,12,50,25.10
2017,08,27,12,51,25.10
2017,08,27,12,52,25.20
2017,08,27,12,53,25.20
2017,08,27,12,54,25.30
2017,08,27,12,55,25.30
2017,08,27,12,56,25.30
2017,08,27,12,57,25.30
2017,08,27,12,58,25.40
2017,08,27,12,59,25.40
2017,08,27,13,00,25.40
2017,08,27,13,01,25.40
2017,08,27,13,02,25.40
2017,08,27,13,03,25.40
2017,08,27,13,04,25.40
2017,08,27,13,05,25.50
2017,08,27,13,06,25.50
2017,08,27,13,07,25.50
2017,08,27,13,08,25.50
2017,08,27,13,09,25.50
2017,08,27,13,10,25.50
2017,08,27,13,11,25.50
2017,08,27,13,12,25.60
2017,08,27,13,13,25.60
2017,08,27,13,14,25.60
2017,08,27,13,15,25.60
2017,08,27,13,16,25.60
2017,08,27,13,17,25.60
2017,08,27,13,18,25.60
2017,08,27,13,19,25.70
2017,08,27,13,20,25.70
2017,08,27,13,21,25.70
2017,08,27,13,22,25.60
2017,08,27,13,23,25.60
2017,08,27,13,24,25.60
2017,08,27,13,25,25.60
2017,08,27,13,26,25.60
2017,08,27,13,27,25.60
2017,08,27,13,28,25.60
2017,08,27,13,29,25.60
2017,08,27,13,30,25.60
2017,08,27,13,31,25.60
2017,08,27,13,32,25.60
2017,08,27,13,33,25.70
2017,08,27,13,34,25.70
2017,08,27,13,35,25.70
2017,08,27,13,36,25.70
2017,08,27,13,37,25.70
2017,08,27,13,38,25.60
2017,08,27,13,39,25.60
2017,08,27,13,40,25.60
2017,08,27,13,41,25.60
2017,08,27,13,42,25.60
2017,08,27,13,43,25.60
2017,08,27,13,44,25.60
2017,08,27,13,45,25.60
2017,08,27,13,46,25.60
2017,08,27,13,47,25.60
2017,08,27,13,48,25.60
2017,08,27,13,49,25.60
2017,08,27,13,50,25.60
2017,08,27,13,51,25.60
2017,08,27,13,52,25.60
2017,08,27,13,53,25.70
2017,08,27,13,54,25.70
2017,08,27,13,55,25.70
2017,08,27,13,56,25.80
2017,08,27,13,57,25.80
2017,08,27,13,58,25.80
2017,08,27,13,59,25.80
2017,08,27,14,00,25.90
2017,08,27,14,01,25.90
2017,08,27,14,02,25.80
2017,08,27,14,03,25.50
2017,08,27,14,04,25.20
2017,08,27,14,05,24.90
2017,08,27,14,06,24.60
2017,08,27,14,07,24.40
2017,08,27,14,08,24.30
2017,08,27,14,09,24.10
2017,08,27,14,10,23.80
2017,08,27,14,11,23.50
2017,08,27,14,12,23.20
2017,08,27,14,13,22.90
2017,08,27,14,14,22.70
2017,08,27,14,15,22.50
2017,08,27,14,16,22.40
2017,08,27,14,17,22.30
2017,08,27,14,18,22.20
2017,08,27,14,19,22.10
2017,08,27,14,20,21.90
2017,08,27,14,21,21.80
2017,08,27,14,22,21.80
2017,08,27,14,23,21.70
2017,08,27,14,24,21.70
2017,08,27,14,25,21.70
2017,08,27,14,26,21.70
2017,08,27,14,27,21.70
2017,08,27,14,28,21.60
2017,08,27,14,29,21.60
2017,08,27,14,30,21.60
2017,08,27,14,31,21.50
2017,08,27,14,32,21.40
2017,08,27,14,33,21.40
2017,08,27,14,34,21.30
2017,08,27,14,35,21.20
2017,08,27,14,36,21.20
2017,08,27,14,37,21.10
2017,08,27,14,38,21.00
2017,08,27,14,39,20.90
2017,08,27,14,40,20.80
2017,08,27,14,41,20.70
2017,08,27,14,42,20.60
2017,08,27,14,43,20.60
2017,08,27,14,44,20.50
2017,08,27,14,45,20.40
2017,08,27,14,46,20.40
2017,08,27,14,47,20.50
2017,08,27,14,48,20.50
2017,08,27,14,49,20.60
2017,08,27,14,50,20.60
2017,08,27,14,51,20.70
2017,08,27,14,52,20.70
2017,08,27,14,53,20.80
2017,08,27,14,54,20.80
2017,08,27,14,55,20.80
2017,08,27,14,56,20.80
2017,08,27,14,57,20.80
2017,08,27,14,58,20.80
2017,08,27,14,59,20.70
2017,08,27,15,00,20.80
2017,08,27,15,01,20.80
2017,08,27,15,02,20.80
2017,08,27,15,03,20.80
2017,08,27,15,04,20.90
2017,08,27,15,05,20.90
2017,08,27,15,06,20.90
2017,08,27,15,07,21.00
2017,08,27,15,08,21.00
2017,08,27,15,09,21.00
2017,08,27,15,10,20.90
2017,08,27,15,11,20.90
2017,08,27,15,12,20.90
2017,08,27,15,13,20.80
2017,08,27,15,14,20.80
2017,08,27,15,15,20.80
2017,08,27,15,16,20.80
2017,08,27,15,17,20.80
2017,08,27,15,18,20.80
2017,08,27,15,19,20.80
2017,08,27,15,20,20.70
2017,08,27,15,21,20.70
2017,08,27,15,22,20.70
2017,08,27,15,23,20.60
2017,08,27,15,24,20.60
2017,08,27,15,25,20.60
2017,08,27,15,26,20.70
2017,08,27,15,27,20.70
2017,08,27,15,28,20.70
2017,08,27,15,29,20.70
2017,08,27,15,30,20.80
2017,08,27,15,31,20.80
2017,08,27,15,32,20.80
2017,08,27,15,33,20.80
2017,08,27,15,34,20.90
2017,08,27,15,35,20.90
2017,08,27,15,36,20.90
2017,08,27,15,37,20.90
2017,08,27,15,38,21.00
2017,08,27,15,39,21.10
2017,08,27,15,40,21.10
2017,08,27,15,41,21.10
2017,08,27,15,42,21.20
2017,08,27,15,43,21.20
2017,08,27,15,44,21.20
2017,08,27,15,45,21.30
2017,08,27,15,46,21.30
2017,08,27,15,47,21.30
2017,08,27,15,48,21.40
2017,08,27,15,49,21.40
2017,08,27,15,50,21.40
2017,08,27,15,51,21.40
2017,08,27,15,52,21.40
2017,08,27,15,53,21.40
2017,08,27,15,54,21.30
2017,08,27,15,55,21.30
2017,08,27,15,56,21.20
2017,08,27,15,57,21.10
2017,08,27,15,58,21.00
2017,08,27,15,59,21.00
2017,08,27,16,00,20.90
2017,08,27,16,01,20.90
2017,08,27,16,02,20.90
2017,08,27,16,03,20.80
2017,08,27,16,04,20.80
2017,08,27,16,05,20.80
2017,08,27,16,06,20.80
2017,08,27,16,07,20.80
2017,08,27,16,08,20.90
2017,08,27,16,09,20.90
2017,08,27,16,10,20.90
2017,08,27,16,11,20.90
2017,08,27,16,12,21.00
2017,08,27,16,13,21.00
2017,08,27,16,14,21.00
2017,08,27,16,15,21.00
2017,08,27,16,16,21.10
2017,08,27,16,17,21.10
2017,08,27,16,18,21.10
2017,08,27,16,19,21.10
2017,08,27,16,20,21.10
2017,08,27,16,21,21.10
2017,08,27,16,22,21.10
2017,08,27,16,23,21.20
2017,08,27,16,24,21.20
2017,08,27,16,25,21.20
2017,08,27,16,26,21.30
2017,08,27,16,27,21.30
2017,08,27,16,28,21.30
2017,08,27,16,29,21.40
2017,08,27,16,30,21.40
2017,08,27,16,31,21.40
2017,08,27,16,32,21.40
2017,08,27,16,33,21.40
2017,08,27,16,34,21.40
2017,08,27,16,35,21.40
2017,08,27,16,36,21.40
2017,08,27,16,37,21.50
2017,08,27,16,38,21.50
2017,08,27,16,39,21.50
2017,08,27,16,40,21.60
2017,08,27,16,41,21.60
2017,08,27,16,42,21.60
2017,08,27,16,43,21.60
2017,08,27,16,44,21.70
2017,08,27,16,45,21.70
2017,08,27,16,46,21.80
2017,08,27,16,47,21.80
2017,08,27,16,48,21.80
2017,08,27,16,49,21.90
2017,08,27,16,50,21.90
2017,08,27,16,51,21.90
2017,08,27,16,52,21.90
2017,08,27,16,53,22.00
2017,08,27,16,54,22.00
2017,08,27,16,55,22.00
2017,08,27,16,56,22.00
2017,08,27,16,57,22.00
2017,08,27,16,58,22.00
2017,08,27,16,59,22.00
2017,08,27,17,00,22.10
2017,08,27,17,01,22.10
2017,08,27,17,02,22.10
2017,08,27,17,03,22.10
2017,08,27,17,04,22.20
2017,08,27,17,05,22.20
2017,08,27,17,06,22.20
2017,08,27,17,07,22.20
2017,08,27,17,08,22.20
2017,08,27,17,09,22.20
2017,08,27,17,10,22.20
2017,08,27,17,11,22.20
2017,08,27,17,12,22.20
2017,08,27,17,13,22.30
2017,08,27,17,14,22.30
2017,08,27,17,15,22.30
2017,08,27,17,16,22.30
2017,08,27,17,17,22.30
2017,08,27,17,18,22.30
2017,08,27,17,19,22.30